רגע לפני שאתם עוזבים...
יש לנו ב
הצעה מיוחד עבורכם!
מספר שירותים שכדאי שתכירו
| לוחית | שעת חיפוש | ||||
| 4669773 | פיג'ו צרפת | 308 | 2010 | 01/09/2026 | 21:20:46 |
| 16657904 | סקודה צ'כיה | KODIAQ | 2025 | 01/09/2026 | 21:20:45 |
| 1901775 | סובארו יפן | XV | 2013 | 01/09/2026 | 21:20:41 |
| 9043274 | אוטוטק פז ווים | - | 2013 | 01/09/2026 | 21:20:40 |
| 3818771 | מזדה יפן | MAZDA 3 | 2010 | 01/09/2026 | 21:20:37 |
| 5115754 | סיאט ספרד | LEON | 2015 | 01/09/2026 | 21:20:36 |
| 1974367 | פולקסווגן גרמניה | GOLF | 2009 | 01/09/2026 | 21:20:34 |
| 1090031 | מרצדס הונגריה | CLA45 AMG | 2014 | 01/09/2026 | 21:20:28 |
| 3453037 | שברולט קוריאה הדרומית | SPARK | 2016 | 01/09/2026 | 21:20:23 |
| 2864617 | וולבו שבדיה | - | 1998 | 01/09/2026 | 21:20:22 |
| 82499703 | טויוטה יפן | COROLLA CROSS | 2024 | 01/09/2026 | 21:20:20 |
| 1375431 | מיצובישי תאילנד | ATTRAGE | 2014 | 01/09/2026 | 21:20:19 |
| 1051087 | הונדה מקסיקו | HR-V | 2017 | 01/09/2026 | 21:20:17 |
| 6825167 | סובארו יפן | IMPREZA B3 | 2008 | 01/09/2026 | 21:20:17 |
| 3784355 | מרצדס בנץ גרמנ | - | 2017 | 01/09/2026 | 21:20:16 |
| 8583708 | מרוטי סוזוקי הודו | BALENO | 2016 | 01/09/2026 | 21:20:16 |
| 90098601 | פורד ארהב" | - | 2015 | 01/09/2026 | 21:20:13 |
| 8485986 | טויוטה טורקיה | COROLLA SDN | 2019 | 01/09/2026 | 21:20:13 |
| 1765430 | ב מ וו בריטניה | MINI COOPER S | 2016 | 01/09/2026 | 21:20:12 |
| 9176587 | פיג'ו צרפת | 208 | 2017 | 01/09/2026 | 21:20:12 |
| 68546403 | הייגר סין | - | 2024 | 01/09/2026 | 21:20:11 |
| 83152201 | ניסאן בריטניה | QASHQAI | 2019 | 01/09/2026 | 21:20:09 |
| 22347602 | טויוטה יפן | RAV 4 HYBRID | 2020 | 01/09/2026 | 21:20:09 |
| 5133258 | קרייזלר מכסיקו | - | 2014 | 01/09/2026 | 21:20:09 |
| 71162501 | קיה קוריאה הדרומית | PICANTO | 2020 | 01/09/2026 | 21:20:08 |
| 94091501 | טויוטה בריטניה | AURIS HYBRID | 2017 | 01/09/2026 | 21:20:03 |
| 6513562 | טויוטה יפן | LAND CRUISER | 2007 | 01/09/2026 | 21:20:02 |
| 1080938 | סוזוקי הונגריה | VITARA | 2016 | 01/09/2026 | 21:20:01 |
| 64468702 | ב מ וו גרמניה | X1 SDRIVE18I | 2021 | 01/09/2026 | 21:20:00 |
| 51027104 | טסלה סין | MODEL Y | 2025 | 01/09/2026 | 21:19:59 |
| 48610803 | מרצדס בנץ גרמנ | - | 2023 | 01/09/2026 | 21:19:59 |
| 3783151 | שברולט ארהב" | CAVALIER | 2003 | 01/09/2026 | 21:19:57 |
| 5133258 | קרייזלר מכסיקו | - | 2014 | 01/09/2026 | 21:19:54 |
| 6325170 | הונדה טורקיה | CIVIC | 2010 | 01/09/2026 | 21:19:49 |
| 51299302 | שברולט ארהב" | - | 2021 | 01/09/2026 | 21:19:39 |
| 48613904 | בי ווי די סין | SEALION 5 | 2026 | 01/09/2026 | 21:19:35 |
| 85888903 | אאודי סלובקיה | Q8 | 2024 | 01/09/2026 | 21:19:33 |
| 5133258 | קרייזלר מכסיקו | - | 2014 | 01/09/2026 | 21:19:31 |
| 18038201 | יונדאי צ'כיה | TUCSON | 2018 | 01/09/2026 | 21:19:31 |
| 1457350 | טויוטה טורקיה | COROLLA | 2003 | 01/09/2026 | 21:19:31 |
| 57273104 | ימהה צרפת | - | 2026 | 01/09/2026 | 21:19:29 |
| 6164461 | הונדה יפן | CIVIC | 2007 | 01/09/2026 | 21:19:24 |
| 7853935 | וולבו בלגיה | S60 | 2002 | 01/09/2026 | 21:19:20 |
| 77780803 | יונדאי קוריאה הדרומית | KONA HYBRID | 2024 | 01/09/2026 | 21:19:19 |
| 50242504 | טויוטה תאילנד | HILUX | 2026 | 01/09/2026 | 21:19:18 |
| 67059601 | סקודה צ'כיה | OCTAVIA | 2019 | 01/09/2026 | 21:19:15 |
| 58678901 | רנו טורקיה | CLIO | 2018 | 01/09/2026 | 21:19:14 |
| 7582557 | מזדה תאילנד | B-2500 | 2004 | 01/09/2026 | 21:19:12 |
| 6143762 | טויוטה יפן | PRIUS HYBRID | 2007 | 01/09/2026 | 21:19:11 |
| 6487361 | הונדה בריטניה | CR-V | 2007 | 01/09/2026 | 21:19:10 |
| 4984966 | יונדאי קוריאה הדרומית | I30 | 2009 | 01/09/2026 | 21:19:09 |
| 27226403 | קיה קוריאה הדרומית | SORENTO | 2022 | 01/09/2026 | 21:19:07 |
| 22497804 | ימהה יפן | - | 2025 | 01/09/2026 | 21:19:05 |
| 83609003 | מיצובישי יפן | ECLIPSE CROSS | 2024 | 01/09/2026 | 21:19:04 |
| 2858272 | דייהטסו יפן | TERIOS | 2010 | 01/09/2026 | 21:19:02 |
| 394548 | סאאב שודיה | - | 1976 | 01/09/2026 | 21:19:01 |
| 71472802 | דאצ'יה רומניה | DUSTER | 2021 | 01/09/2026 | 21:18:57 |
| 2348261 | טויוטה יפן | COROLLA | 2007 | 01/09/2026 | 21:18:55 |
| 72051204 | פורשה גרמניה | 911 CARRERA GTS | 2026 | 01/09/2026 | 21:18:51 |
| 6991026 | טויוטה יפן | RAV 4 HYBRID | 2022 | 01/09/2026 | 21:18:50 |
| 1212112 | קוואסאקי יפן | - | 2013 | 01/09/2026 | 21:18:42 |
| 13736404 | בי ווי די סין | BYD DOLPHIN | 2024 | 01/09/2026 | 21:18:40 |
| 40083701 | קרייזלר מכסיקו | - | 2018 | 01/09/2026 | 21:18:39 |
| 61299902 | אאודי הונגריה | TT COUPE | 2021 | 01/09/2026 | 21:18:37 |
| 9722212 | וולבו בלגיה | S60 T5 | 2013 | 01/09/2026 | 21:18:35 |
| 4256134 | מיצובישי יפן | LANCER SPORTBAC | 2015 | 01/09/2026 | 21:18:33 |
| 46940803 | סיאט ספרד | IBIZA | 2023 | 01/09/2026 | 21:18:30 |
| 32879502 | טויוטה טורקיה | COROLLA HSD SDN | 2020 | 01/09/2026 | 21:18:27 |
| 8674381 | טויוטה צרפת | YARIS HYBRID | 2016 | 01/09/2026 | 21:18:25 |
| 22347602 | טויוטה יפן | RAV 4 HYBRID | 2020 | 01/09/2026 | 21:18:25 |
| 24229202 | אדריה | - | 2020 | 01/09/2026 | 21:18:25 |
| 1390033 | ניסאן יפן | INFINITI Q50 | 2015 | 01/09/2026 | 21:18:20 |
| 7916864 | סובארו יפן | B4 | 2008 | 01/09/2026 | 21:18:19 |
| 68546403 | הייגר סין | - | 2024 | 01/09/2026 | 21:18:17 |
| 2847065 | שברולט ארהב" | - | 2008 | 01/09/2026 | 21:18:16 |
| 61616901 | קרייזלר ארהב" | GRAND CHEROKEE | 2019 | 01/09/2026 | 21:18:15 |
| 66351802 | טויוטה טורקיה | COROLLA HSD SDN | 2021 | 01/09/2026 | 21:18:15 |
| 22347602 | טויוטה יפן | RAV 4 HYBRID | 2020 | 01/09/2026 | 21:18:15 |
| 5160537 | יונדאי צ'כיה | I30 | 2016 | 01/09/2026 | 21:18:15 |
| 3357870 | טויוטה יפן | COROLLA | 2009 | 01/09/2026 | 21:18:15 |
| 22624704 | אס ווי אמ טאיו | - | 2025 | 01/09/2026 | 21:18:14 |
| 85982402 | קיה קוריאה הדרומית | NIRO PHEV | 2022 | 01/09/2026 | 21:18:12 |
| 47756003 | גילי סין | GEOMETRY C | 2023 | 01/09/2026 | 21:18:12 |
| 6995454 | ב מ וו ארהב" | X4 XDRIVE 20I | 2015 | 01/09/2026 | 21:18:12 |
| 9793733 | מיצובישי יפן | OUTLANDER | 2015 | 01/09/2026 | 21:18:12 |
| 6195856 | מזדה יפן | MAZDA3 | 2004 | 01/09/2026 | 21:18:11 |
| 24675402 | סקודה צ'כיה | KAMIQ | 2020 | 01/09/2026 | 21:18:08 |
| 36987501 | ב מ וו גרמניה | 745E | 2020 | 01/09/2026 | 21:18:08 |
| 43068503 | ב מ וו ארהב" | X4 XDRIVE30I | 2023 | 01/09/2026 | 21:18:08 |
| 5867034 | סוזוקי הונגריה | SX4 CROSSOVER | 2015 | 01/09/2026 | 21:18:06 |
| 7170712 | רנו טורקיה | FLUENCE | 2013 | 01/09/2026 | 21:18:04 |
| 4584069 | ניסאן אנגליה | QASHQAI | 2009 | 01/09/2026 | 21:18:04 |
| 5110952 | טויוטה יפן | PRIUS HYBRID | 2013 | 01/09/2026 | 21:18:03 |
| 3654862 | מזדה יפן | MAZDA 3 | 2007 | 01/09/2026 | 21:18:01 |
| 1999232 | מיצובישי תאילנד | SPACE STAR | 2015 | 01/09/2026 | 21:17:59 |
| 6995454 | ב מ וו ארהב" | X4 XDRIVE 20I | 2015 | 01/09/2026 | 21:17:56 |
| 3399666 | יונדאי קוריאה הדרומית | TUCSON | 2008 | 01/09/2026 | 21:17:55 |
| 40389001 | סובארו יפן | XV | 2018 | 01/09/2026 | 21:17:54 |
| 21882302 | טויוטה יפן | RAV 4 HYBRID | 2020 | 01/09/2026 | 21:17:53 |
| 12914004 | מרצדס גרמניה | AMG GT63 4M PLU | 2024 | 01/09/2026 | 21:17:52 |
| 3289679 | ניסאן בריטניה | NOTE | 2012 | 01/09/2026 | 21:17:52 |
| 67519202 | ניו הולנד פיאט | - | 2022 | 01/09/2026 | 21:17:50 |
| 9239755 | פולקסווגן גרמנ | - | 1975 | 01/09/2026 | 21:17:48 |
| 22347602 | טויוטה יפן | RAV 4 HYBRID | 2020 | 01/09/2026 | 21:17:47 |
| 9815767 | סוזוקי יפן | SWIFT | 2008 | 01/09/2026 | 21:17:46 |
| 67364103 | טויוטה צרפת | YARIS CROSS HSD | 2024 | 01/09/2026 | 21:17:42 |
| 2896952 | קיה קוריאה הדרומית | FORTE | 2013 | 01/09/2026 | 21:17:42 |
| 69346503 | פורד ד אפריקה | RANGER | 2024 | 01/09/2026 | 21:17:42 |
| 14270602 | הסקוורנה אוסטר | - | 2020 | 01/09/2026 | 21:17:40 |
| 4458763 | מזדה יפן | MAZDA 3 | 2008 | 01/09/2026 | 21:17:38 |
| 4969923 | פיג'ו צרפת | 406 | 2000 | 01/09/2026 | 21:17:37 |
| 31429303 | פולסטאר סין | POLESTAR2 ELECT | 2024 | 01/09/2026 | 21:17:36 |
| 33330404 | מ.ג סין | CYBERSTER | 2025 | 01/09/2026 | 21:17:36 |
| 46730202 | מרצדס בנץ גרמנ | - | 2021 | 01/09/2026 | 21:17:34 |
| 3999676 | יונדאי קוריאה הדרומית | IX35 | 2011 | 01/09/2026 | 21:17:29 |
| 77406902 | גולדן דרגון סי | - | 2024 | 01/09/2026 | 21:17:27 |
| 1171738 | סוזוקי הונגריה | SX4 CROSSOVER | 2016 | 01/09/2026 | 21:17:26 |
| 8987732 | שברולט ארהב" | - | 2015 | 01/09/2026 | 21:17:23 |
| 37108602 | מרכז הגרורים | - | 2020 | 01/09/2026 | 21:17:21 |
| 8848811 | ב מ וו ארהב" | X5 XDRIVE 35I | 2015 | 01/09/2026 | 21:17:18 |
| 36987501 | ב מ וו גרמניה | 745E | 2020 | 01/09/2026 | 21:17:18 |
| 1800066 | מזדה יפן | MX 5 | 2008 | 01/09/2026 | 21:17:16 |
| 43224903 | ב מ וו גרמניה | 530E | 2023 | 01/09/2026 | 21:17:15 |
| 9219852 | אאודי גרמניה | A3 | 2014 | 01/09/2026 | 21:17:15 |
| 85888903 | אאודי סלובקיה | Q8 | 2024 | 01/09/2026 | 21:17:13 |
| 7317655 | יונדאי קוריאה הדרומית | IONIQ HYBRID | 2017 | 01/09/2026 | 21:17:12 |
| 9425156 | יונדאי קוריאה הדרומית | ACCENT | 2004 | 01/09/2026 | 21:17:10 |
| 1020332 | יונדאי קוריאה הדרומית | I35 | 2014 | 01/09/2026 | 21:17:09 |
| 2125173 | יונדאי הודו | I20 | 2010 | 01/09/2026 | 21:17:06 |
| 8955379 | טויוטה בריטניה | AURIS HYBRID | 2013 | 01/09/2026 | 21:17:06 |
| 4204633 | קיה קוריאה | PICANTO | 2015 | 01/09/2026 | 21:17:05 |
| 7234334 | פיאט פולין | FIAT 500 ABARTH | 2015 | 01/09/2026 | 21:17:05 |
| 2479764 | מיצובישי יפן | LANCER | 2008 | 01/09/2026 | 21:17:01 |
| 57570502 | קי.טי.אמ אוסטר | - | 2021 | 01/09/2026 | 21:17:00 |
| 47756003 | גילי סין | GEOMETRY C | 2023 | 01/09/2026 | 21:16:58 |
| 9368239 | מיצובישי תאילנד | ATTRAGE | 2016 | 01/09/2026 | 21:16:57 |
| 9839530 | פיאגיו | - | 2016 | 01/09/2026 | 21:16:56 |
| 10635101 | טויוטה טורקיה | COROLLA | 2017 | 01/09/2026 | 21:16:55 |
| 1225513 | פיג'ו צרפת | 307 | 2006 | 01/09/2026 | 21:16:55 |
| 71163401 | קיה קוריאה הדרומית | PICANTO | 2020 | 01/09/2026 | 21:16:55 |
| 41921802 | איסוזו יפן | - | 2021 | 01/09/2026 | 21:16:54 |
| 24675402 | סקודה צ'כיה | KAMIQ | 2020 | 01/09/2026 | 21:16:50 |
| 85773703 | סיאט ספרד | ARONA | 2024 | 01/09/2026 | 21:16:50 |
| 24675402 | סקודה צ'כיה | KAMIQ | 2020 | 01/09/2026 | 21:16:49 |
| 6571127 | מזדה יפן | LANTIS 323 | 1999 | 01/09/2026 | 21:16:44 |
| 37331303 | איסוזו תאילנד | D-MAX | 2024 | 01/09/2026 | 21:16:39 |
| 80294303 | ב מ וו גרמניה | M4 COMPETXDRIVE | 2024 | 01/09/2026 | 21:16:39 |
| 22347602 | טויוטה יפן | RAV 4 HYBRID | 2020 | 01/09/2026 | 21:16:38 |
| 64679502 | קיה קוריאה הדרומית | SORENTO | 2021 | 01/09/2026 | 21:16:35 |
| 24215203 | גילי סין | GEOMETRY C | 2022 | 01/09/2026 | 21:16:34 |
| 3876455 | אביב סוכנויות | - | 2017 | 01/09/2026 | 21:16:28 |
| 1945330 | מזדה יפן | CX-5 | 2016 | 01/09/2026 | 21:16:27 |
| 53617702 | רנו טורקיה | MEGANE | 2021 | 01/09/2026 | 21:16:27 |
| 2862939 | אופל פולין | ASTRA BERLINA | 2016 | 01/09/2026 | 21:16:24 |
| 7839554 | פורד ארהב" | - | 2015 | 01/09/2026 | 21:16:24 |
| 7739976 | פולקסווגן מקסיקה | JETTA | 2012 | 01/09/2026 | 21:16:22 |
| 24675402 | סקודה צ'כיה | KAMIQ | 2020 | 01/09/2026 | 21:16:21 |
| 2212369 | פורד ספרד | FOCUS | 2009 | 01/09/2026 | 21:16:20 |
| 92700601 | דאצ'יה רומניה | DUSTER | 2018 | 01/09/2026 | 21:16:18 |
| 61688002 | ב מ וו ארהב" | X6 XDRIVE 40I | 2021 | 01/09/2026 | 21:16:17 |
| 5261017 | רובר בריטניה | R75 | 2004 | 01/09/2026 | 21:16:16 |
| 60772802 | קרייזלר מכסיקו | - | 2021 | 01/09/2026 | 21:16:12 |
| 2033812 | פולקסווגן ספרד | POLO | 2013 | 01/09/2026 | 21:16:12 |
| 72997001 | יונדאי קוריאה הדרומית | IONIQ HYBRID | 2019 | 01/09/2026 | 21:16:11 |
| 16784501 | מיצובישי יפן | ASX | 2018 | 01/09/2026 | 21:16:11 |
| 16784501 | מיצובישי יפן | ASX | 2018 | 01/09/2026 | 21:16:08 |
| 54979301 | יונדאי טורקיה | I10 | 2019 | 01/09/2026 | 21:16:08 |
| 1687765 | הונדה יפן | CIVIC | 2008 | 01/09/2026 | 21:16:07 |
| 72675201 | איווקו איטליה | - | 2019 | 01/09/2026 | 21:16:05 |
| 9738631 | רנו טורקיה | FLUENCE | 2015 | 01/09/2026 | 21:16:02 |
| 1053584 | ניסאן ספרד | NV200 | 2017 | 01/09/2026 | 21:16:01 |
| 88201802 | יונדאי קוריאה הדרומית | KONA | 2022 | 01/09/2026 | 21:15:59 |
| 19558104 | צ'רי סין | FX EV | 2025 | 01/09/2026 | 21:15:58 |
| 1314135 | רנו צרפת | SCENIC | 2002 | 01/09/2026 | 21:15:58 |
| 9334879 | פורד ארהב" | - | 2015 | 01/09/2026 | 21:15:58 |
| 88046201 | יונדאי קוריאה הדרומית | ELANTRA | 2020 | 01/09/2026 | 21:15:56 |
| 9409269 | מרצדס בנץ גרמנ | - | 2009 | 01/09/2026 | 21:15:56 |
| 18348102 | קיה סלובקיה | SPORTAGE | 2020 | 01/09/2026 | 21:15:55 |
| 77780803 | יונדאי קוריאה הדרומית | KONA HYBRID | 2024 | 01/09/2026 | 21:15:53 |
| 88288801 | יונדאי טורקיה | I10 | 2020 | 01/09/2026 | 21:15:51 |
| 8468378 | פיג'ו צרפת | 5008 | 2012 | 01/09/2026 | 21:15:51 |
| 8740578 | סיטרואן תורכיה | BERLINGO | 2012 | 01/09/2026 | 21:15:49 |
| 29824603 | מרצדס בנץ גרמנ | - | 2023 | 01/09/2026 | 21:15:49 |
| 85888903 | אאודי סלובקיה | Q8 | 2024 | 01/09/2026 | 21:15:45 |
| 85668402 | סרס סין | SERES 3 | 2022 | 01/09/2026 | 21:15:44 |
| 4954032 | טויוטה בריטניה | AURIS HYBRID | 2015 | 01/09/2026 | 21:15:40 |
| 72997001 | יונדאי קוריאה הדרומית | IONIQ HYBRID | 2019 | 01/09/2026 | 21:15:40 |
| 4666874 | טויוטה יפן | CAMRY | 2011 | 01/09/2026 | 21:15:40 |
| 5735681 | מיצובישי יפן | OUTLANDER | 2017 | 01/09/2026 | 21:15:39 |
| 5735681 | מיצובישי יפן | OUTLANDER | 2017 | 01/09/2026 | 21:15:38 |
| 80294303 | ב מ וו גרמניה | M4 COMPETXDRIVE | 2024 | 01/09/2026 | 21:15:38 |
| 1200256 | ג'ון דיר ארהב" | - | 1986 | 01/09/2026 | 21:15:34 |
| 69514602 | טסלה סין | MODEL 3 | 2021 | 01/09/2026 | 21:15:34 |
| 4649163 | מזדה יפן | MAZDA 3 | 2008 | 01/09/2026 | 21:15:31 |
| 9403533 | יונדאי טורקיה | I10 | 2015 | 01/09/2026 | 21:15:31 |
| 92560601 | דאציה מרוקו | LODGY | 2017 | 01/09/2026 | 21:15:30 |
| 82199203 | איסוזו טורקיה | - | 2025 | 01/09/2026 | 21:15:29 |
| 3241664 | פולקסווגן גרמניה | PASSAT | 2008 | 01/09/2026 | 21:15:29 |
| 18587204 | ב מ וו גרמניה | I4 EDRIVE35 | 2025 | 01/09/2026 | 21:15:28 |
| 53373803 | יונדאי קוריאה הדרומית | GENESIS GV70 | 2024 | 01/09/2026 | 21:15:27 |